• In Hungary
  • List of Countries
  • For 7 days
  • Water Temperature
  • Satellite Maps
  • Weather Map
  • News
  • Weather Widgets
  • user-avatar
    Login

    Hourly Weather Zhezqazghan

    Today, 18 September, Tuesday

    Time Temperature Precipitation Wind Pressure Humidity
    00:00 +23°C° 0 mm 5 mps 743 mmHg 21%
    01:00 +22°C° 0 mm 5 mps 743 mmHg 21%
    02:00 +22°C° 0 mm 5 mps 743 mmHg 23%
    03:00 +21°C° 0 mm 4 mps 743 mmHg 25%
    04:00 +20°C° 0 mm 3 mps 743 mmHg 29%
    05:00 +21°C° 0 mm 3 mps 743 mmHg 27%
    06:00 +22°C° 0 mm 4 mps 744 mmHg 25%
    07:00 +25°C° 0 mm 4 mps 744 mmHg 23%
    08:00 +27°C° 0 mm 4 mps 744 mmHg 21%
    09:00 +28°C° 0 mm 4 mps 744 mmHg 19%
    10:00 +30°C° 0 mm 3 mps 744 mmHg 17%
    11:00 +31°C° 0 mm 3 mps 744 mmHg 16%
    12:00 +31°C° 0 mm 3 mps 743 mmHg 15%
    13:00 +33°C° 0 mm 3 mps 743 mmHg 14%
    14:00 +33°C° 0 mm 3 mps 743 mmHg 15%
    15:00 +33°C° 0 mm 3 mps 742 mmHg 15%
    16:00 +34°C° 0 mm 2 mps 742 mmHg 16%
    17:00 +31°C° 0 mm 3 mps 742 mmHg 18%
    18:00 +29°C° 0 mm 3 mps 742 mmHg 20%
    19:00 +28°C° 0 mm 3 mps 742 mmHg 22%
    20:00 +27°C° 0 mm 3 mps 742 mmHg 24%
    21:00 +26°C° 0 mm 2 mps 742 mmHg 25%
    22:00 +25°C° 0 mm 2 mps 742 mmHg 27%
    23:00 +24°C° 0 mm 2 mps 742 mmHg 28%

    Tomorrow, 19 September, Wednesday

    Time Temperature Precipitation Wind Pressure Humidity
    00:00 +24°C° 0 mm 2 mps 742 mmHg 29%
    01:00 +23°C° 0 mm 2 mps 742 mmHg 30%
    02:00 +23°C° 0 mm 1 mps 742 mmHg 31%
    03:00 +22°C° 0 mm 1 mps 741 mmHg 32%
    04:00 +22°C° 0 mm 1 mps 741 mmHg 33%
    05:00 +23°C° 0 mm 1 mps 742 mmHg 31%
    06:00 +25°C° 0 mm 1 mps 742 mmHg 28%
    07:00 +26°C° 0 mm 1 mps 742 mmHg 25%
    08:00 +28°C° 0 mm 1 mps 742 mmHg 22%
    09:00 +29°C° 0 mm 2 mps 742 mmHg 19%
    10:00 +31°C° 0 mm 2 mps 742 mmHg 17%
    11:00 +33°C° 0 mm 3 mps 741 mmHg 15%
    12:00 +34°C° 0 mm 3 mps 741 mmHg 14%
    13:00 +35°C° 0 mm 4 mps 741 mmHg 13%
    14:00 +35°C° 0 mm 4 mps 740 mmHg 13%
    15:00 +35°C° 0 mm 5 mps 740 mmHg 13%
    16:00 +35°C° 0 mm 5 mps 740 mmHg 13%
    17:00 +33°C° 0 mm 5 mps 740 mmHg 15%
    18:00 +30°C° 0 mm 5 mps 740 mmHg 16%
    19:00 +29°C° 0 mm 4 mps 740 mmHg 18%
    20:00 +28°C° 0 mm 5 mps 740 mmHg 21%
    21:00 +27°C° 0 mm 5 mps 741 mmHg 25%
    22:00 +26°C° 0 mm 5 mps 741 mmHg 28%
    23:00 +25°C° 0 mm 5 mps 741 mmHg 32%

    Day after tomorrow, 20 September, Thursday

    Time Temperature Precipitation Wind Pressure Humidity
    00:00 +22°C° 0 mm 4 mps 741 mmHg 36%
    01:00 +21°C° 0 mm 4 mps 740 mmHg 40%
    02:00 +20°C° 0 mm 3 mps 741 mmHg 43%
    03:00 +20°C° 0 mm 3 mps 741 mmHg 47%
    04:00 +19°C° 0 mm 2 mps 741 mmHg 50%
    05:00 +19°C° 0 mm 3 mps 741 mmHg 50%
    06:00 +19°C° 0 mm 3 mps 741 mmHg 49%
    07:00 +20°C° 0 mm 4 mps 742 mmHg 48%
    08:00 +21°C° 0 mm 5 mps 742 mmHg 42%
    09:00 +23°C° 0 mm 6 mps 742 mmHg 36%
    10:00 +24°C° 0 mm 7 mps 742 mmHg 30%
    11:00 +26°C° 0 mm 8 mps 741 mmHg 27%
    12:00 +27°C° 0 mm 9 mps 741 mmHg 24%
    13:00 +28°C° 0 mm 10 mps 741 mmHg 22%
    14:00 +27°C° 0 mm 10 mps 741 mmHg 22%
    15:00 +27°C° 0 mm 11 mps 741 mmHg 23%
    16:00 +27°C° 0 mm 11 mps 741 mmHg 23%
    17:00 +23°C° 0 mm 10 mps 741 mmHg 30%
    18:00 +21°C° 0 mm 9 mps 742 mmHg 36%
    19:00 +18°C° 0 mm 9 mps 743 mmHg 43%
    20:00 +17°C° 0 mm 8 mps 743 mmHg 41%
    21:00 +16°C° 0 mm 7 mps 744 mmHg 40%
    22:00 +15°C° 0 mm 6 mps 744 mmHg 39%
    23:00 +15°C° 0 mm 5 mps 744 mmHg 41%

    21 September, Friday

    Time Temperature Precipitation Wind Pressure Humidity
    00:00 +14°C° 0 mm 4 mps 744 mmHg 43%
    01:00 +13°C° 0 mm 3 mps 745 mmHg 45%
    02:00 +13°C° 0 mm 3 mps 745 mmHg 46%
    03:00 +13°C° 0 mm 3 mps 745 mmHg 48%
    04:00 +13°C° 0 mm 3 mps 746 mmHg 49%
    05:00 +13°C° 0 mm 4 mps 746 mmHg 47%
    06:00 +14°C° 0 mm 4 mps 747 mmHg 44%
    07:00 +15°C° 0 mm 5 mps 747 mmHg 42%
    08:00 +16°C° 0 mm 5 mps 747 mmHg 38%
    09:00 +19°C° 0 mm 5 mps 747 mmHg 34%
    10:00 +20°C° 0 mm 6 mps 747 mmHg 30%
    11:00 +21°C° 0 mm 6 mps 747 mmHg 27%
    12:00 +22°C° 0 mm 6 mps 747 mmHg 25%
    13:00 +23°C° 0 mm 7 mps 747 mmHg 22%
    14:00 +23°C° 0 mm 7 mps 746 mmHg 21%
    15:00 +23°C° 0 mm 6 mps 746 mmHg 21%
    16:00 +23°C° 0 mm 6 mps 746 mmHg 20%
    17:00 +22°C° 0 mm 5 mps 746 mmHg 22%
    18:00 +20°C° 0 mm 3 mps 746 mmHg 25%
    19:00 +19°C° 0 mm 2 mps 747 mmHg 27%
    20:00 +18°C° 0 mm 2 mps 747 mmHg 29%
    21:00 +18°C° 0 mm 2 mps 746 mmHg 31%
    22:00 +18°C° 0 mm 1 mps 746 mmHg 32%
    23:00 +17°C° 0 mm 2 mps 746 mmHg 32%

    22 September, Saturday

    Time Temperature Precipitation Wind Pressure Humidity
    00:00 +16°C° 0 mm 2 mps 746 mmHg 32%
    01:00 +16°C° 0 mm 2 mps 746 mmHg 33%
    02:00 +16°C° 0 mm 3 mps 746 mmHg 33%
    03:00 +14°C° 0 mm 3 mps 746 mmHg 33%
    04:00 +14°C° 0 mm 3 mps 746 mmHg 34%
    05:00 +16°C° 0 mm 3 mps 746 mmHg 33%
    06:00 +17°C° 0 mm 4 mps 746 mmHg 31%
    07:00 +18°C° 0 mm 4 mps 746 mmHg 30%
    08:00 +19°C° 0 mm 5 mps 746 mmHg 29%
    09:00 +21°C° 0 mm 6 mps 746 mmHg 27%
    10:00 +23°C° 0 mm 6 mps 746 mmHg 25%
    11:00 +24°C° 0 mm 7 mps 745 mmHg 26%
    12:00 +26°C° 0 mm 8 mps 745 mmHg 27%
    13:00 +26°C° 0 mm 8 mps 744 mmHg 27%
    14:00 +26°C° 0.1 mm 8 mps 744 mmHg 29%
    15:00 +26°C° 0.1 mm 8 mps 744 mmHg 31%
    16:00 +24°C° 0.1 mm 8 mps 744 mmHg 33%
    17:00 +23°C° 0.6 mm 6 mps 744 mmHg 39%
    18:00 +22°C° 0.6 mm 5 mps 744 mmHg 44%
    19:00 +21°C° 0.6 mm 4 mps 744 mmHg 50%
    20:00 +20°C° 0.2 mm 4 mps 745 mmHg 51%
    21:00 +19°C° 0.2 mm 4 mps 745 mmHg 53%
    22:00 +18°C° 0.2 mm 4 mps 745 mmHg 54%
    23:00 +17°C° 0 mm 3 mps 745 mmHg 58%

    23 September, Sunday

    Time Temperature Precipitation Wind Pressure Humidity
    00:00 +16°C° 0 mm 3 mps 745 mmHg 61%
    01:00 +14°C° 0 mm 3 mps 745 mmHg 65%
    02:00 +14°C° 0 mm 3 mps 745 mmHg 68%
    03:00 +13°C° 0 mm 3 mps 746 mmHg 71%
    04:00 +12°C° 0 mm 3 mps 746 mmHg 74%
    05:00 +13°C° 0 mm 3 mps 746 mmHg 71%
    06:00 +13°C° 0 mm 3 mps 747 mmHg 69%
    07:00 +13°C° 0 mm 3 mps 747 mmHg 66%
    08:00 +16°C° 0 mm 3 mps 747 mmHg 59%
    09:00 +17°C° 0 mm 4 mps 747 mmHg 52%
    10:00 +18°C° 0 mm 4 mps 748 mmHg 45%
    11:00 +19°C° 0 mm 4 mps 747 mmHg 40%
    12:00 +20°C° 0 mm 4 mps 747 mmHg 36%
    13:00 +21°C° 0 mm 4 mps 747 mmHg 32%
    14:00 +21°C° 0 mm 4 mps 747 mmHg 31%
    15:00 +22°C° 0 mm 4 mps 747 mmHg 30%
    16:00 +22°C° 0 mm 4 mps 747 mmHg 29%
    17:00 +21°C° 0 mm 4 mps 747 mmHg 32%
    18:00 +19°C° 0 mm 3 mps 748 mmHg 34%
    19:00 +18°C° 0 mm 2 mps 748 mmHg 37%
    20:00 +18°C° 0 mm 2 mps 748 mmHg 39%
    21:00 +18°C° 0 mm 1 mps 748 mmHg 41%
    22:00 +16°C° 0 mm 1 mps 748 mmHg 43%
    23:00 +16°C° 0 mm 1 mps 748 mmHg 45%
    Show more